Regional Weather Roundup
Issued by NWS Sioux Falls, SD

Home | Current Version | Previous Version | Text Only | Print | Product List | Glossary On
Versions: 1 2 3 4 5 6 7 8 9 10 11 12 13 14 15 16 17 18 19 20 21 22 23 24 25 26 27 28 29 30 31 32 33 34 35 36 37 38 39 40 41 42 43 44 45 46 47 48 49 50
000
ASUS43 KFSD 221310
RWRFSD

WEATHER ROUNDUP FOR SE SOUTH DAKOTA/SW MINNESOTA/NW IOWA
NATIONAL WEATHER SERVICE SIOUX FALLS SD
800 AM CDT FRI MAY 22 2015

NOTE: "FAIR" INDICATES FEW OR NO CLOUDS BELOW 12,000 FEET WITH NO
SIGNIFICANT WEATHER AND OR OBSTRUCTIONS TO VISIBILITY.


SDZ038>040-050-052>070-221400-
SOUTHEAST SOUTH DAKOTA

CITY           SKY/WX    TMP DP  RH WIND       PRES   REMARKS
BROOKINGS      SUNNY     48  43  81 CALM      30.22R
CHAMBERLAIN    SUNNY     50  42  75 CALM      30.17S
HURON          SUNNY     52  42  69 SE3       30.19R
MADISON        FAIR      54  43  66 CALM      30.20S
MITCHELL       SUNNY     52  44  74 S6        30.20R
SIOUX FALLS    MOSUNNY   53  44  71 CALM      30.20R
WINNER         FAIR      52  41  66 CALM      30.17R
YANKTON        SUNNY     50  43  76 CALM      30.20R
$$

MNZ071-072-080-081-089-090-097-098-221400-
SOUTHWEST MINNESOTA

CITY           SKY/WX    TMP DP  RH WIND       PRES   REMARKS
FAIRMONT       SUNNY     55  36  47 NW6       30.19S
JACKSON        SUNNY     57  36  44 NW6       30.20S
LUVERNE        SUNNY     52  39  62 CALM      30.21S
MARSHALL       SUNNY     55  37  50 CALM      30.19S
MONTEVIDEO     SUNNY     55  43  62 CALM      30.21R
REDWOOD FALLS  SUNNY     52  41  66 NW3       30.20R
TRACY          SUNNY     59  37  44 CALM      30.21R
WINDOM         SUNNY     57  39  51 CALM      30.20S
WORTHINGTON    SUNNY     55  37  50 CALM      30.21R
$$

IAZ001>003-012>014-020>022-031-032-NEZ013-014-SDZ071-221400-
NORTHWEST IOWA

CITY           SKY/WX    TMP DP  RH WIND       PRES   REMARKS
CHEROKEE       SUNNY     49  46  88 CALM      30.21R
DENISON        MOSUNNY   54  46  76 CALM      30.19S
ESTHERVILLE    SUNNY     57  39  51 N6        30.19S
LE MARS        SUNNY     50  45  81 S3        30.22R
ORANGE CITY    SUNNY     54  45  71 CALM      30.20S
SHELDON        SUNNY     52  43  71 CALM      30.20R
SIOUX CITY     SUNNY     54  42  64 CALM      30.21S
SPENCER        SUNNY     52  40  63 W3        30.20S
STORM LAKE     SUNNY     55  43  62 W3        30.21S
$$

ABBREVIATIONS USED IN REMARKS
   TC - TEMPERATURE IN CELSIUS
  WCI - WIND CHILL INDEX
   HX - HEAT INDEX
  VSB - VISIBILITY




USA.gov is the U.S. government's official web portal to all federal, state and local government web resources and services.